Location: Pasadena, ca
(34.1243°N, 118.1037°W)
Time: 21:08:47
(UTC-08:00)

OTV 5 (USA 277) - Pass Details

Date: 13 November 2017
Orbit: 404 x 417 km, 43.0° (Epoch: 07 September)

Event Time Altitude Azimuth Distance (km) Brightness Sun altitude
Exits shadow 04:34:48 16° 23° (NNE) 1,142 ? -22.6°
Drops below altitude 10° 04:35:56 10° 40° (NE) 1,455 ? -22.4°
Sets 04:38:22 0° 57° (ENE) 2,316 ? -21.9°
